Time,TemperatureF,DewpointF,PressureIn,WindDirection,WindDirectionDegrees,WindSpeedMPH,WindSpeedGustMPH,Humidity,HourlyPrecipIn,Conditions,Clouds,dailyrainin,SoftwareType,DateUTC
2013-01-15 00:00:00,39.7,28.5,30.28,West,264,1.0,1.0,64,0.00,,,0.00,Wunderground v.1.15,2013-01-15 05:00:00,
2013-01-15 00:05:00,39.6,28.4,30.28,WNW,286,0.0,1.0,64,0.00,,,0.00,Wunderground v.1.15,2013-01-15 05:05:00,
2013-01-15 00:10:00,39.6,28.4,30.27,WNW,287,1.0,1.0,64,0.00,,,0.00,Wunderground v.1.15,2013-01-15 05:10:00,
2013-01-15 00:20:00,39.5,27.9,30.28,WNW,302,1.0,3.0,63,0.00,,,0.00,Wunderground v.1.15,2013-01-15 05:20:00,
2013-01-15 00:30:00,39.4,27.5,30.28,WSW,255,2.0,2.0,62,0.00,,,0.00,Wunderground v.1.15,2013-01-15 05:30:00,
2013-01-15 00:40:00,39.2,27.7,30.27,West,276,0.0,1.0,63,0.00,,,0.00,Wunderground v.1.15,2013-01-15 05:40:00,
2013-01-15 00:50:00,39.1,27.6,30.28,West,276,0.0,1.0,63,0.00,,,0.00,Wunderground v.1.15,2013-01-15 05:50:00,
2013-01-15 01:00:00,39.0,27.5,30.28,NNW,328,1.0,1.0,63,0.00,,,0.00,Wunderground v.1.15,2013-01-15 06:00:00,
2013-01-15 01:10:00,38.9,27.4,30.29,NNE,22,1.0,1.0,63,0.00,,,0.00,Wunderground v.1.15,2013-01-15 06:10:00,
2013-01-15 01:20:00,38.8,27.3,30.28,SSE,148,0.0,1.0,63,0.00,,,0.00,Wunderground v.1.15,2013-01-15 06:20:00,
2013-01-15 01:30:00,38.7,26.8,30.28,WSW,241,0.0,1.0,62,0.00,,,0.00,Wunderground v.1.15,2013-01-15 06:30:00,
2013-01-15 01:40:00,38.6,26.7,30.30,WNW,292,1.0,1.0,62,0.00,,,0.00,Wunderground v.1.15,2013-01-15 06:40:00,
2013-01-15 01:50:00,38.5,26.2,30.32,East,79,1.0,1.0,61,0.00,,,0.00,Wunderground v.1.15,2013-01-15 06:50:00,
2013-01-15 01:55:00,38.4,26.1,30.29,NE,54,2.0,2.0,61,0.00,,,0.00,Wunderground v.1.15,2013-01-15 06:55:00,
2013-01-15 02:05:00,38.2,25.9,30.30,West,269,1.0,2.0,61,0.00,,,0.00,Wunderground v.1.15,2013-01-15 07:05:00,
2013-01-15 02:15:00,38.0,26.1,30.29,North,353,1.0,1.0,62,0.00,,,0.00,Wunderground v.1.15,2013-01-15 07:15:00,
2013-01-15 02:25:00,37.7,25.8,30.29,NE,41,0.0,1.0,62,0.00,,,0.00,Wunderground v.1.15,2013-01-15 07:25:00,
2013-01-15 02:35:00,37.6,25.7,30.28,ENE,71,0.0,1.0,62,0.00,,,0.00,Wunderground v.1.15,2013-01-15 07:35:00,
2013-01-15 02:45:00,37.5,25.7,30.29,ENE,71,0.0,1.0,62,0.00,,,0.00,Wunderground v.1.15,2013-01-15 07:45:00,
2013-01-15 02:50:00,37.3,25.8,30.27,ENE,71,0.0,1.0,63,0.00,,,0.00,Wunderground v.1.15,2013-01-15 07:50:00,
2013-01-15 03:00:00,37.2,25.8,30.26,ENE,71,0.0,1.0,63,0.00,,,0.00,Wunderground v.1.15,2013-01-15 08:00:00,
2013-01-15 03:05:00,37.1,26.0,30.27,ENE,71,0.0,1.0,64,0.00,,,0.00,Wunderground v.1.15,2013-01-15 08:05:00,
2013-01-15 03:15:00,37.0,25.9,30.27,NNW,333,0.0,1.0,64,0.00,,,0.00,Wunderground v.1.15,2013-01-15 08:15:00,
2013-01-15 03:25:00,37.1,25.7,30.26,NNW,342,0.0,1.0,63,0.00,,,0.00,Wunderground v.1.15,2013-01-15 08:25:00,
2013-01-15 03:30:00,37.1,26.8,30.26,NNW,333,0.0,1.0,66,0.00,,,0.00,Wunderground v.1.15,2013-01-15 08:30:00,
2013-01-15 03:40:00,36.9,25.9,30.27,NNW,328,0.0,1.0,64,0.00,,,0.00,Wunderground v.1.15,2013-01-15 08:40:00,
2013-01-15 03:50:00,36.9,26.2,30.27,WNW,302,0.0,1.0,65,0.00,,,0.00,Wunderground v.1.15,2013-01-15 08:50:00,
2013-01-15 04:00:00,36.8,26.1,30.25,SSE,155,0.0,1.0,65,0.00,,,0.00,Wunderground v.1.15,2013-01-15 09:00:00,
2013-01-15 04:10:00,36.8,26.1,30.26,NNE,31,0.0,1.0,65,0.00,,,0.00,Wunderground v.1.15,2013-01-15 09:10:00,
2013-01-15 04:20:00,36.7,26.0,30.25,NNE,31,0.0,1.0,65,0.00,,,0.00,Wunderground v.1.15,2013-01-15 09:20:00,
2013-01-15 04:30:00,36.7,25.7,30.25,NNE,13,0.0,1.0,64,0.00,,,0.00,Wunderground v.1.15,2013-01-15 09:30:00,
2013-01-15 04:35:00,36.7,26.0,30.25,NNE,13,0.0,1.0,65,0.00,,,0.00,Wunderground v.1.15,2013-01-15 09:35:00,
2013-01-15 04:40:00,36.6,25.9,30.25,North,11,0.0,1.0,65,0.00,,,0.00,Wunderground v.1.15,2013-01-15 09:40:00,
2013-01-15 04:50:00,36.5,25.5,30.25,NW,325,0.0,1.0,64,0.00,,,0.00,Wunderground v.1.15,2013-01-15 09:50:00,
2013-01-15 05:00:00,36.3,25.7,30.25,WNW,302,0.0,1.0,65,0.00,,,0.00,Wunderground v.1.15,2013-01-15 10:00:00,
2013-01-15 05:10:00,35.9,25.6,30.26,WNW,302,0.0,1.0,66,0.00,,,0.00,Wunderground v.1.15,2013-01-15 10:10:00,
2013-01-15 05:15:00,35.6,25.4,30.26,WNW,291,0.0,1.0,66,0.00,,,0.00,Wunderground v.1.15,2013-01-15 10:15:00,
2013-01-15 05:25:00,35.3,25.4,30.26,WNW,291,0.0,1.0,67,0.00,,,0.00,Wunderground v.1.15,2013-01-15 10:25:00,
2013-01-15 05:35:00,34.9,25.4,30.26,WNW,295,0.0,1.0,68,0.00,,,0.00,Wunderground v.1.15,2013-01-15 10:35:00,
2013-01-15 05:45:00,34.2,25.1,30.26,WNW,295,0.0,1.0,69,0.00,,,0.00,Wunderground v.1.15,2013-01-15 10:45:00,
2013-01-15 05:55:00,33.9,24.8,30.26,WNW,295,0.0,1.0,69,0.00,,,0.00,Wunderground v.1.15,2013-01-15 10:55:00,
2013-01-15 06:05:00,33.4,24.7,30.25,WNW,295,0.0,1.0,70,0.00,,,0.00,Wunderground v.1.15,2013-01-15 11:05:00,
2013-01-15 06:15:00,32.7,25.0,30.27,WNW,295,0.0,1.0,73,0.00,,,0.00,Wunderground v.1.15,2013-01-15 11:15:00,
2013-01-15 06:25:00,31.9,25.2,30.28,WNW,295,0.0,1.0,76,0.00,,,0.00,Wunderground v.1.15,2013-01-15 11:25:00,
2013-01-15 06:30:00,31.5,24.8,30.28,WNW,295,0.0,1.0,76,0.00,,,0.00,Wunderground v.1.15,2013-01-15 11:30:00,
2013-01-15 06:40:00,31.5,24.5,30.29,WNW,284,0.0,1.0,75,0.00,,,0.00,Wunderground v.1.15,2013-01-15 11:40:00,
2013-01-15 06:50:00,31.5,24.2,30.29,NNW,340,0.0,1.0,74,0.00,,,0.00,Wunderground v.1.15,2013-01-15 11:50:00,
2013-01-15 07:00:00,31.7,24.4,30.30,West,278,0.0,1.0,74,0.00,,,0.00,Wunderground v.1.15,2013-01-15 12:00:00,
2013-01-15 07:05:00,31.6,24.3,30.30,West,278,0.0,1.0,74,0.00,,,0.00,Wunderground v.1.15,2013-01-15 12:05:00,
2013-01-15 07:15:00,31.2,23.9,30.31,West,278,0.0,1.0,74,0.00,,,0.00,Wunderground v.1.15,2013-01-15 12:15:00,
2013-01-15 07:25:00,31.1,24.1,30.31,ESE,120,0.0,1.0,75,0.00,,,0.00,Wunderground v.1.15,2013-01-15 12:25:00,
2013-01-15 07:35:00,31.0,24.0,30.32,ESE,120,0.0,1.0,75,0.00,,,0.00,Wunderground v.1.15,2013-01-15 12:35:00,
2013-01-15 07:40:00,30.7,23.7,30.32,ESE,120,0.0,1.0,75,0.00,,,0.00,Wunderground v.1.15,2013-01-15 12:40:00,
2013-01-15 07:50:00,30.4,23.7,30.32,ESE,120,0.0,1.0,76,0.00,,,0.00,Wunderground v.1.15,2013-01-15 12:50:00,
2013-01-15 08:00:00,30.0,23.7,30.32,ESE,120,0.0,1.0,77,0.00,,,0.00,Wunderground v.1.15,2013-01-15 13:00:00,
2013-01-15 08:10:00,30.0,24.0,30.33,ESE,120,0.0,1.0,78,0.00,,,0.00,Wunderground v.1.15,2013-01-15 13:10:00,
2013-01-15 08:20:00,30.8,24.1,30.33,ESE,120,0.0,1.0,76,0.00,,,0.00,Wunderground v.1.15,2013-01-15 13:20:00,
2013-01-15 08:30:00,31.4,24.4,30.33,WNW,294,0.0,1.0,75,0.00,,,0.00,Wunderground v.1.15,2013-01-15 13:30:00,
2013-01-15 08:40:00,32.5,24.8,30.33,WNW,287,0.0,1.0,73,0.00,,,0.00,Wunderground v.1.15,2013-01-15 13:40:00,
2013-01-15 08:50:00,33.5,24.8,30.33,NNE,26,1.0,1.0,70,0.00,,,0.00,Wunderground v.1.15,2013-01-15 13:50:00,
2013-01-15 08:55:00,34.0,25.2,30.33,NNE,29,0.0,4.0,70,0.00,,,0.00,Wunderground v.1.15,2013-01-15 13:55:00,
2013-01-15 09:05:00,34.8,25.3,30.33,WNW,290,1.0,2.0,68,0.00,,,0.00,Wunderground v.1.15,2013-01-15 14:05:00,
2013-01-15 09:15:00,35.7,25.1,30.33,WSW,248,1.0,3.0,65,0.00,,,0.00,Wunderground v.1.15,2013-01-15 14:15:00,
2013-01-15 09:25:00,36.3,25.3,30.33,ENE,59,2.0,4.0,64,0.00,,,0.00,Wunderground v.1.15,2013-01-15 14:25:00,
2013-01-15 09:35:00,36.7,24.9,30.33,NE,49,2.0,3.0,62,0.00,,,0.00,Wunderground v.1.15,2013-01-15 14:35:00,
2013-01-15 09:45:00,37.4,24.8,30.34,NNE,31,2.0,2.0,60,0.00,,,0.00,Wunderground v.1.15,2013-01-15 14:45:00,
2013-01-15 10:00:00,38.0,24.5,30.34,ENE,58,3.0,3.0,58,0.00,,,0.00,Wunderground v.1.15,2013-01-15 15:00:00,
2013-01-15 10:10:00,38.2,24.3,30.34,NNE,32,3.0,3.0,57,0.00,,,0.00,Wunderground v.1.15,2013-01-15 15:10:00,
2013-01-15 10:20:00,38.5,24.1,30.34,WSW,248,3.0,3.0,56,0.00,,,0.00,Wunderground v.1.15,2013-01-15 15:20:00,
2013-01-15 10:30:00,38.7,24.3,30.34,NE,41,2.0,2.0,56,0.00,,,0.00,Wunderground v.1.15,2013-01-15 15:30:00,
2013-01-15 10:40:00,38.9,24.1,30.34,NE,50,1.0,1.0,55,0.00,,,0.00,Wunderground v.1.15,2013-01-15 15:40:00,
2013-01-15 10:50:00,38.9,24.1,30.33,NE,51,2.0,2.0,55,0.00,,,0.00,Wunderground v.1.15,2013-01-15 15:50:00,
2013-01-15 11:00:00,39.0,24.2,30.32,WNW,297,1.0,2.0,55,0.00,,,0.00,Wunderground v.1.15,2013-01-15 16:00:00,
2013-01-15 11:05:00,39.2,24.4,30.31,NE,53,1.0,2.0,55,0.00,,,0.00,Wunderground v.1.15,2013-01-15 16:05:00,
2013-01-15 11:15:00,38.9,24.1,30.30,North,11,1.0,1.0,55,0.00,,,0.00,Wunderground v.1.15,2013-01-15 16:15:00,
2013-01-15 11:25:00,38.9,24.1,30.30,NE,46,1.0,1.0,55,0.00,,,0.00,Wunderground v.1.15,2013-01-15 16:25:00,
2013-01-15 11:35:00,38.9,24.1,30.30,North,3,0.0,2.0,55,0.00,,,0.00,Wunderground v.1.15,2013-01-15 16:35:00,
2013-01-15 11:40:00,39.1,23.8,30.30,NW,304,1.0,2.0,54,0.00,,,0.00,Wunderground v.1.15,2013-01-15 16:40:00,
2013-01-15 11:50:00,39.4,23.7,30.30,NE,56,1.0,2.0,53,0.00,,,0.00,Wunderground v.1.15,2013-01-15 16:50:00,
2013-01-15 12:00:00,39.4,23.7,30.30,East,79,1.0,1.0,53,0.00,,,0.00,Wunderground v.1.15,2013-01-15 17:00:00,
2013-01-15 12:10:00,39.6,23.9,30.29,NW,304,1.0,3.0,53,0.00,,,0.00,Wunderground v.1.15,2013-01-15 17:10:00,
2013-01-15 12:20:00,40.1,24.3,30.29,West,274,1.0,1.0,53,0.00,,,0.00,Wunderground v.1.15,2013-01-15 17:20:00,
2013-01-15 12:30:00,39.8,23.6,30.29,WSW,256,1.0,2.0,52,0.00,,,0.00,Wunderground v.1.15,2013-01-15 17:30:00,
2013-01-15 12:40:00,39.5,23.3,30.29,WSW,239,1.0,1.0,52,0.00,,,0.00,Wunderground v.1.15,2013-01-15 17:40:00,
2013-01-15 12:45:00,39.5,24.2,30.29,West,280,1.0,1.0,54,0.00,,,0.00,Wunderground v.1.15,2013-01-15 17:45:00,
2013-01-15 12:55:00,39.9,24.1,30.29,NW,318,1.0,2.0,53,0.00,,,0.00,Wunderground v.1.15,2013-01-15 17:55:00,
2013-01-15 13:05:00,39.7,24.0,30.29,East,80,1.0,1.0,53,0.00,,,0.00,Wunderground v.1.15,2013-01-15 18:05:00,
2013-01-15 13:15:00,39.7,24.0,30.29,NE,49,0.0,1.0,53,0.00,,,0.00,Wunderground v.1.15,2013-01-15 18:15:00,
2013-01-15 13:25:00,40.0,24.7,30.29,NW,304,0.0,1.0,54,0.00,,,0.00,Wunderground v.1.15,2013-01-15 18:25:00,
2013-01-15 13:35:00,39.7,23.5,30.29,SW,236,1.0,3.0,52,0.00,,,0.00,Wunderground v.1.15,2013-01-15 18:35:00,
2013-01-15 13:45:00,39.6,23.9,30.29,WNW,284,2.0,2.0,53,0.00,,,0.00,Wunderground v.1.15,2013-01-15 18:45:00,
2013-01-15 13:55:00,39.6,24.3,30.28,NNW,340,0.0,1.0,54,0.00,,,0.00,Wunderground v.1.15,2013-01-15 18:55:00,
2013-01-15 14:00:00,39.8,24.0,30.29,NNW,340,0.0,1.0,53,0.00,,,0.00,Wunderground v.1.15,2013-01-15 19:00:00,
2013-01-15 14:10:00,40.0,24.2,30.29,West,274,0.0,1.0,53,0.00,,,0.00,Wunderground v.1.15,2013-01-15 19:10:00,
2013-01-15 14:20:00,39.9,24.1,30.28,WNW,287,0.0,1.0,53,0.00,,,0.00,Wunderground v.1.15,2013-01-15 19:20:00,
2013-01-15 14:30:00,39.8,23.6,30.28,WSW,256,0.0,1.0,52,0.00,,,0.00,Wunderground v.1.15,2013-01-15 19:30:00,
2013-01-15 14:40:00,39.7,24.0,30.28,WNW,295,0.0,1.0,53,0.00,,,0.00,Wunderground v.1.15,2013-01-15 19:40:00,
2013-01-15 14:45:00,39.7,24.4,30.28,WNW,296,0.0,1.0,54,0.00,,,0.00,Wunderground v.1.15,2013-01-15 19:45:00,
2013-01-15 14:55:00,39.6,23.9,30.28,West,281,0.0,1.0,53,0.00,,,0.00,Wunderground v.1.15,2013-01-15 19:55:00,
2013-01-15 15:05:00,39.6,23.9,30.28,West,266,0.0,1.0,53,0.00,,,0.00,Wunderground v.1.15,2013-01-15 20:05:00,
2013-01-15 15:15:00,39.6,23.9,30.28,West,266,0.0,1.0,53,0.00,,,0.00,Wunderground v.1.15,2013-01-15 20:15:00,
2013-01-15 15:25:00,39.6,23.9,30.28,ENE,58,0.0,1.0,53,0.00,,,0.00,Wunderground v.1.15,2013-01-15 20:25:00,
2013-01-15 15:35:00,39.5,24.2,30.27,ENE,73,0.0,1.0,54,0.00,,,0.00,Wunderground v.1.15,2013-01-15 20:35:00,
2013-01-15 15:45:00,39.4,23.7,30.25,East,101,0.0,1.0,53,0.00,,,0.00,Wunderground v.1.15,2013-01-15 20:45:00,
2013-01-15 15:55:00,39.4,24.1,30.28,WNW,287,0.0,1.0,54,0.00,,,0.00,Wunderground v.1.15,2013-01-15 20:55:00,
2013-01-15 16:05:00,39.2,23.9,30.28,WNW,287,0.0,1.0,54,0.00,,,0.00,Wunderground v.1.15,2013-01-15 21:05:00,
2013-01-15 16:10:00,39.1,23.8,30.28,WNW,287,0.0,1.0,54,0.00,,,0.00,Wunderground v.1.15,2013-01-15 21:10:00,
2013-01-15 16:20:00,38.7,24.3,30.27,WNW,286,0.0,1.0,56,0.00,,,0.00,Wunderground v.1.15,2013-01-15 21:20:00,
2013-01-15 16:25:00,38.5,24.1,30.28,WNW,287,0.0,1.0,56,0.00,,,0.00,Wunderground v.1.15,2013-01-15 21:25:00,
2013-01-15 16:35:00,38.1,24.2,30.27,WNW,287,0.0,1.0,57,0.00,,,0.00,Wunderground v.1.15,2013-01-15 21:35:00,
2013-01-15 16:45:00,37.5,24.5,30.28,WNW,287,0.0,1.0,59,0.00,,,0.00,Wunderground v.1.15,2013-01-15 21:45:00,
2013-01-15 16:55:00,36.9,24.3,30.29,WNW,287,0.0,1.0,60,0.00,,,0.00,Wunderground v.1.15,2013-01-15 21:55:00,
2013-01-15 17:00:00,36.6,24.0,30.29,WNW,287,0.0,1.0,60,0.00,,,0.00,Wunderground v.1.15,2013-01-15 22:00:00,
2013-01-15 17:10:00,35.9,24.1,30.29,WNW,287,0.0,1.0,62,0.00,,,0.00,Wunderground v.1.15,2013-01-15 22:10:00,
2013-01-15 17:20:00,35.4,24.4,30.29,WNW,287,0.0,1.0,64,0.00,,,0.00,Wunderground v.1.15,2013-01-15 22:20:00,
2013-01-15 17:30:00,35.2,25.0,30.29,WNW,286,0.0,1.0,66,0.00,,,0.00,Wunderground v.1.15,2013-01-15 22:30:00,
2013-01-15 17:40:00,34.7,25.2,30.29,WNW,287,0.0,1.0,68,0.00,,,0.00,Wunderground v.1.15,2013-01-15 22:40:00,
2013-01-15 17:45:00,34.5,25.4,30.29,NNE,19,0.0,1.0,69,0.00,,,0.00,Wunderground v.1.15,2013-01-15 22:45:00,
2013-01-15 17:55:00,34.3,24.8,30.29,NNE,19,0.0,1.0,68,0.00,,,0.00,Wunderground v.1.15,2013-01-15 22:55:00,
2013-01-15 18:05:00,34.1,25.3,30.29,NNE,18,0.0,1.0,70,0.00,,,0.00,Wunderground v.1.15,2013-01-15 23:05:00,
2013-01-15 18:10:00,34.0,25.2,30.29,NNE,19,0.0,1.0,70,0.00,,,0.00,Wunderground v.1.15,2013-01-15 23:10:00,
2013-01-15 18:20:00,33.5,25.1,30.29,NNE,19,0.0,1.0,71,0.00,,,0.00,Wunderground v.1.15,2013-01-15 23:20:00,
2013-01-15 18:30:00,32.9,24.9,30.30,NNE,19,0.0,1.0,72,0.00,,,0.00,Wunderground v.1.15,2013-01-15 23:30:00,
2013-01-15 18:40:00,32.5,24.8,30.31,NNE,19,0.0,1.0,73,0.00,,,0.00,Wunderground v.1.15,2013-01-15 23:40:00,
2013-01-15 18:50:00,32.4,24.7,30.31,NNE,19,0.0,1.0,73,0.00,,,0.00,Wunderground v.1.15,2013-01-15 23:50:00,
2013-01-15 19:00:00,32.5,25.1,30.30,NNE,19,0.0,1.0,74,0.00,,,0.00,Wunderground v.1.15,2013-01-16 00:00:00,
2013-01-15 19:10:00,32.1,25.1,30.31,NNE,19,0.0,1.0,75,0.00,,,0.00,Wunderground v.1.15,2013-01-16 00:10:00,
2013-01-15 19:20:00,31.5,24.8,30.31,NNE,19,0.0,1.0,76,0.00,,,0.00,Wunderground v.1.15,2013-01-16 00:20:00,
2013-01-15 19:30:00,31.1,24.7,30.30,NNE,19,0.0,1.0,77,0.00,,,0.00,Wunderground v.1.15,2013-01-16 00:30:00,
2013-01-15 19:40:00,30.8,24.4,30.30,NNE,18,0.0,1.0,77,0.00,,,0.00,Wunderground v.1.15,2013-01-16 00:40:00,
2013-01-15 19:50:00,30.6,24.9,30.30,NNE,18,0.0,1.0,79,0.00,,,0.00,Wunderground v.1.15,2013-01-16 00:50:00,
2013-01-15 20:00:00,30.4,25.0,30.30,NNE,19,0.0,1.0,80,0.00,,,0.00,Wunderground v.1.15,2013-01-16 01:00:00,
2013-01-15 20:05:00,30.2,24.8,30.29,NNE,19,0.0,1.0,80,0.00,,,0.00,Wunderground v.1.15,2013-01-16 01:05:00,
2013-01-15 20:15:00,30.1,25.0,30.29,NNE,19,0.0,1.0,81,0.00,,,0.00,Wunderground v.1.15,2013-01-16 01:15:00,
2013-01-15 20:25:00,30.1,25.3,30.30,NNE,19,0.0,1.0,82,0.00,,,0.00,Wunderground v.1.15,2013-01-16 01:25:00,
2013-01-15 20:30:00,30.2,25.1,30.30,NNE,19,0.0,1.0,81,0.00,,,0.00,Wunderground v.1.15,2013-01-16 01:30:00,
2013-01-15 20:40:00,30.2,24.8,30.29,NNE,19,0.0,1.0,80,0.00,,,0.00,Wunderground v.1.15,2013-01-16 01:40:00,
2013-01-15 20:50:00,30.3,25.2,30.28,NNE,19,0.0,1.0,81,0.00,,,0.00,Wunderground v.1.15,2013-01-16 01:50:00,
2013-01-15 21:00:00,30.8,25.7,30.29,NNE,19,0.0,1.0,81,0.00,,,0.00,Wunderground v.1.15,2013-01-16 02:00:00,
2013-01-15 21:10:00,30.9,25.8,30.29,NNE,18,0.0,1.0,81,0.00,,,0.00,Wunderground v.1.15,2013-01-16 02:10:00,
2013-01-15 21:20:00,30.9,25.8,30.29,NNE,19,0.0,1.0,81,0.00,,,0.00,Wunderground v.1.15,2013-01-16 02:20:00,
2013-01-15 21:25:00,30.9,25.8,30.29,NNE,19,0.0,1.0,81,0.00,,,0.00,Wunderground v.1.15,2013-01-16 02:25:00,
2013-01-15 21:35:00,30.9,26.1,30.29,NNE,19,0.0,1.0,82,0.00,,,0.00,Wunderground v.1.15,2013-01-16 02:35:00,
2013-01-15 21:45:00,30.7,25.3,30.29,NNE,19,0.0,1.0,80,0.00,,,0.00,Wunderground v.1.15,2013-01-16 02:45:00,
2013-01-15 21:50:00,30.8,26.0,30.29,NNE,18,0.0,1.0,82,0.00,,,0.00,Wunderground v.1.15,2013-01-16 02:50:00,
2013-01-15 22:00:00,30.6,25.8,30.28,NNE,19,0.0,1.0,82,0.00,,,0.00,Wunderground v.1.15,2013-01-16 03:00:00,
2013-01-15 22:10:00,30.4,25.9,30.28,NNE,18,0.0,1.0,83,0.00,,,0.00,Wunderground v.1.15,2013-01-16 03:10:00,
2013-01-15 22:15:00,30.4,25.9,30.28,NNE,18,0.0,1.0,83,0.00,,,0.00,Wunderground v.1.15,2013-01-16 03:15:00,
2013-01-15 22:25:00,30.4,25.3,30.27,NNE,18,0.0,1.0,81,0.00,,,0.00,Wunderground v.1.15,2013-01-16 03:25:00,
2013-01-15 22:35:00,30.2,25.7,30.27,NNE,18,0.0,1.0,83,0.00,,,0.00,Wunderground v.1.15,2013-01-16 03:35:00,
2013-01-15 22:45:00,30.1,25.6,30.27,NNE,19,0.0,1.0,83,0.00,,,0.00,Wunderground v.1.15,2013-01-16 03:45:00,
2013-01-15 22:55:00,30.0,25.5,30.27,NNE,18,0.0,1.0,83,0.00,,,0.00,Wunderground v.1.15,2013-01-16 03:55:00,
2013-01-15 23:05:00,29.9,25.4,30.27,NNE,18,0.0,1.0,83,0.00,,,0.00,Wunderground v.1.15,2013-01-16 04:05:00,
2013-01-15 23:15:00,29.9,25.7,30.28,NNE,19,0.0,1.0,84,0.00,,,0.00,Wunderground v.1.15,2013-01-16 04:15:00,
2013-01-15 23:25:00,29.8,25.6,30.28,NNE,18,0.0,1.0,84,0.00,,,0.00,Wunderground v.1.15,2013-01-16 04:25:00,
2013-01-15 23:30:00,29.9,25.9,30.28,NNE,18,0.0,1.0,85,0.00,,,0.00,Wunderground v.1.15,2013-01-16 04:30:00,
2013-01-15 23:40:00,30.1,25.6,30.27,NNE,19,0.0,1.0,83,0.00,,,0.00,Wunderground v.1.15,2013-01-16 04:40:00,
2013-01-15 23:50:00,30.4,25.0,30.27,NNE,20,0.0,1.0,80,0.00,,,0.00,Wunderground v.1.15,2013-01-16 04:50:00,